[[{"header":{"parameterUnit":"m.s-1","parameterCategory":2,"la1":30.2991,"la2":30.254,"lo1":-89.0895,"lo2":-89.0444,"dy":0.0017,"dx":0.0017,"nx":28,"ny":28,"refTime":"2024-06-20T09:00:00:Z","depth":"0","parameterNumber":2,"parameterNumberName":"U-component_of_CURRENTS"},"data":[0,0,0,0,0,0,0,0,0,0,0,0,0,0,0,0,0,0,0,0,0,0,0,0,0,0,0,0,0,0,0,0,0,0,0,0,0,0,0,0,0,0,0,0,0,0,0,0,0,0,0,0,0,0,0,0,0,0,0.357,0.3571,0,0.3626,0.3626,0.3626,0.3632,0.3632,0.3632,0.3632,0.3613,0.3613,0.3612,0,0,0,0,0,0,0,0,0,0,0,0,0,0.3496,0.3497,0.357,0.3571,0.3572,0.3626,0.3626,0.3626,0.3632,0.3632,0.3632,0.3632,0.3613,0.3613,0.3612,0,0,0,0,0,0,0,0,0,0,0,0,0,0.3533,0.3497,0.357,0.3585,0.3587,0.3625,0.3626,0.3626,0.3632,0.3632,0.3632,0.3632,0.3613,0.3613,0.3612,0.3614,0,0,0.3611,0.361,0,0,0,0,0,0,0,0,0.3531,0.3536,0.3582,0.3584,0.3587,0.3626,0.3593,0.362,0.3633,0.3611,0.3632,0.3632,0.3613,0.3613,0.3619,0.3613,0.3612,0.3611,0.361,0.361,0.361,0,0,0,0,0,0,0,0.3529,0.3533,0.3588,0.3583,0.3586,0.3598,0.3603,0.3598,0.3608,0.3613,0.3614,0.3627,0.3613,0.3619,0.3618,0.3612,0.3611,0.361,0.361,0.361,0.3648,0.365,0,0,0,0,0,0,0.3529,0.3531,0.3586,0.359,0.3562,0.36,0.3605,0.361,0.361,0.3611,0.3627,0.3627,0.362,0.3619,0.3617,0.3669,0.361,0.361,0.3609,0.3647,0.3649,0.365,0,0,0,0,0,0,0.3527,0.3533,0.3584,0.3565,0.3573,0.3602,0.3607,0.3611,0.3622,0.3623,0.3622,0.3636,0.362,0.3618,0.3633,0.3666,0.3609,0.3609,0.3645,0.3648,0.3649,0.374,0,0,0,0,0,0,0.3525,0.3532,0.3533,0.3565,0.3575,0.3614,0.3608,0.3613,0.3633,0.3633,0.363,0.3628,0.362,0.3634,0.3632,0.3664,0.3608,0.3644,0.3646,0.3649,0.3735,0.3745,0.3753,0,0,0,0,0,0.3522,0.3524,0.3532,0.3539,0.3575,0.3616,0.3621,0.3638,0.3633,0.3644,0.3649,0.3628,0.3648,0.3634,0.3632,0.3665,0.3643,0.3646,0.3649,0.3731,0.3743,0.3753,0,0,0,0,0,0,0.3488,0.3526,0.3535,0.3547,0.3584,0.3618,0.3629,0.3642,0.3654,0.3653,0.3644,0.3643,0.3673,0.3652,0.3636,0.3683,0.3642,0.3645,0.3706,0.3717,0.3725,0.3739,0.3608,0,0,0,0,0,0.3483,0.3497,0.3538,0.3551,0.3567,0.3599,0.3615,0.3633,0.3653,0.3659,0.3659,0.3662,0.3683,0.3685,0.3693,0.3711,0.3725,0.373,0.3739,0.3747,0.3756,0.3826,0.3843,0.366,0.366,0.366,0,0,0.3472,0.3499,0.3504,0.3546,0.357,0.3609,0.3607,0.364,0.3674,0.3653,0.3683,0.3694,0.3696,0.3731,0.3741,0.3716,0.3806,0.375,0.3757,0.3763,0.3831,0.3849,0.3865,0.3662,0.3662,0.3661,0,0,0.3472,0.3483,0.35,0.3536,0.3586,0.3615,0.3627,0.3668,0.3682,0.3718,0.3724,0.3756,0.3762,0.379,0.3801,0.3857,0.3856,0.3855,0.3907,0.3975,0.3991,0.4006,0.4051,0.4068,0.3854,0.3854,0.3854,0,0.3455,0.349,0.3513,0.3549,0.3583,0.362,0.3658,0.3686,0.3728,0.3754,0.3733,0.38,0.3796,0.3868,0.3893,0.388,0.3912,0.3869,0.399,0.4004,0.4017,0.406,0.4078,0.3859,0.3858,0.3858,0.3857,0,0.3478,0.3511,0.3527,0.3588,0.3624,0.3665,0.3716,0.3751,0.3772,0.3809,0.3873,0.3885,0.3927,0.3935,0.3932,0.4029,0.402,0.4001,0.3967,0.4042,0.4081,0.4098,0.3865,0.3864,0.3862,0.3861,0,0,0.3414,0.3522,0.3524,0.3562,0.365,0.3676,0.3748,0.3823,0.387,0.3911,0.3975,0.4024,0.4041,0.4055,0.4063,0.4117,0.4235,0.4103,0.4105,0.4156,0.4387,0.4339,0.4353,0.4249,0.4252,0.4255,0.4378,0,0.3424,0.3496,0.3554,0.3622,0.3661,0.3733,0.379,0.3863,0.3923,0.3991,0.4038,0.4094,0.4084,0.4109,0.4173,0.4225,0.4286,0.4203,0.4299,0.4302,0.4258,0.4373,0.4277,0.4376,0.4395,0.4398,0.44,0,0.3415,0.3472,0.354,0.3641,0.3662,0.3705,0.3809,0.3872,0.3993,0.4036,0.4128,0.4172,0.4277,0.4236,0.4387,0.4342,0.4377,0.4404,0.4409,0.4345,0.4287,0.4303,0.4406,0.4344,0.4427,0.4425,0.4423,0,0.3342,0.345,0.3504,0.354,0.3662,0.3696,0.3757,0.3876,0.3934,0.4073,0.4133,0.4264,0.4319,0.4413,0.4482,0.4454,0.4628,0.4589,0.4579,0.4575,0.4499,0.4482,0.4559,0.4695,0.4695,0.4694,0.4694,0,0.3322,0.3357,0.3466,0.3491,0.354,0.3638,0.3705,0.3791,0.392,0.4002,0.4142,0.4235,0.4369,0.4483,0.4535,0.4624,0.4678,0.4621,0.4621,0.4526,0.451,0.4454,0.4398,0.4699,0.4698,0.4697,0.4696,0,0.3233,0.3316,0.3366,0.3477,0.3506,0.3528,0.3647,0.3705,0.3842,0.3959,0.4009,0.4232,0.4405,0.4521,0.4673,0.4677,0.4652,0.4766,0.4634,0.4616,0.4531,0.4481,0.433,0.4196,0.4797,0.4797,0.4797,0,0.3201,0.3223,0.3314,0.3337,0.3382,0.344,0.3487,0.3631,0.3708,0.3956,0.4011,0.4233,0.4376,0.4597,0.4686,0.4793,0.4645,0.4716,0.4641,0.4546,0.4493,0.4265,0.4146,0.4581,0.4579,0.4577,0.4576,0,0.3135,0.3159,0.3202,0.3243,0.3281,0.3332,0.3415,0.3456,0.3647,0.3773,0.3965,0.4107,0.4374,0.449,0.4637,0.4681,0.4514,0.4685,0.464,0.4385,0.409,0.3953,0.4462,0.4562,0.4563,0.4564,0.4565,0.4566,0.3069,0.3069,0.312,0.3145,0.3184,0.321,0.3213,0.3325,0.3427,0.358,0.3812,0.3979,0.4269,0.4504,0.4506,0.4518,0.4424,0.4448,0.4416,0.4208,0.4011,0.4477,0.4535,0.4536,0.4537,0.4538,0.4539,0,0.2988,0.3005,0.3028,0.3048,0.3036,0.3101,0.3159,0.315,0.3211,0.3408,0.3555,0.3876,0.4053,0.4249,0.4433,0.4311,0.406,0.4201,0.3896,0.3806,0.4312,0.4239,0.4171,0.4171,0.4171,0.4172,0.4172,0.4172,0.2953,0.2938,0.2945,0.2894,0.2906,0.2858,0.286,0.2868,0.2969,0.311,0.3287,0.3506,0.3957,0.4275,0.429,0.4181,0.3841,0.3665,0.3596,0.4037,0.4057,0.4076,0.3998,0.3881,0.3881,0.2954,0.2948,0.2943]},{"header":{"parameterUnit":"m.s-1","parameterCategory":2,"la1":30.2991,"la2":30.254,"lo1":-89.0895,"lo2":-89.0444,"dy":0.0017,"dx":0.0017,"nx":28,"ny":28,"refTime":"2024-06-20T09:00:00:Z","depth":"0","parameterNumber":3,"parameterNumberName":"V-component_of_CURRENTS"},"data":[0,0,0,0,0,0,0,0,0,0,0,0,0,0,0,0,0,0,0,0,0,0,0,0,0,0,0,0,0,0,0,0,0,0,0,0,0,0,0,0,0,0,0,0,0,0,0,0,0,0,0,0,0,0,0,0,0,0,-0.0095,-0.0096,0,-0.0177,-0.0178,-0.0179,-0.0243,-0.0243,-0.0244,-0.0244,-0.036,-0.0363,-0.0366,0,0,0,0,0,0,0,0,0,0,0,0,0,-0.006,-0.006,-0.0095,-0.0096,-0.0097,-0.0177,-0.0178,-0.018,-0.0243,-0.0243,-0.0244,-0.0245,-0.036,-0.0363,-0.0366,0,0,0,0,0,0,0,0,0,0,0,0,0,-0.0103,-0.006,-0.0095,-0.0137,-0.0142,-0.0177,-0.0178,-0.018,-0.0243,-0.0243,-0.0244,-0.0245,-0.0358,-0.0362,-0.0366,-0.0377,0,0,-0.0378,-0.038,0,0,0,0,0,0,0,0,-0.01,-0.0104,-0.013,-0.0134,-0.0139,-0.0199,-0.0208,-0.0247,-0.0243,-0.0206,-0.0244,-0.0245,-0.0308,-0.0316,-0.0332,-0.0382,-0.0387,-0.0379,-0.0381,-0.0383,-0.0384,0,0,0,0,0,0,0,-0.0097,-0.0102,-0.0129,-0.0131,-0.0137,-0.0175,-0.0181,-0.0216,-0.0254,-0.0209,-0.0214,-0.022,-0.0311,-0.0328,-0.0335,-0.0389,-0.0379,-0.0382,-0.0385,-0.0386,-0.0469,-0.0469,0,0,0,0,0,0,-0.008,-0.0098,-0.0127,-0.0131,-0.012,-0.0174,-0.0182,-0.0181,-0.0253,-0.0264,-0.0219,-0.0223,-0.0321,-0.033,-0.0339,-0.0356,-0.0383,-0.0387,-0.0389,-0.0469,-0.0469,-0.0469,0,0,0,0,0,0,-0.0079,-0.0081,-0.0123,-0.0116,-0.0124,-0.0173,-0.0172,-0.0182,-0.0197,-0.026,-0.0272,-0.0224,-0.0322,-0.0334,-0.0376,-0.0361,-0.0388,-0.0392,-0.0469,-0.0469,-0.0469,-0.0388,0,0,0,0,0,0,-0.0077,-0.008,-0.0074,-0.0115,-0.0124,-0.0135,-0.0172,-0.0183,-0.0199,-0.0204,-0.0268,-0.028,-0.0323,-0.037,-0.038,-0.0367,-0.0395,-0.0469,-0.0469,-0.0469,-0.0391,-0.0385,-0.038,0,0,0,0,0,-0.0075,-0.0062,-0.0073,-0.0077,-0.0113,-0.0134,-0.0142,-0.0181,-0.0198,-0.0198,-0.0251,-0.0278,-0.0375,-0.0373,-0.0385,-0.0372,-0.047,-0.0469,-0.0469,-0.0394,-0.0387,-0.0381,0,0,0,0,0,0,-0.0046,-0.0069,-0.0081,-0.0076,-0.0098,-0.0144,-0.0149,-0.0172,-0.0213,-0.0219,-0.0281,-0.0296,-0.0327,-0.0362,-0.0359,-0.0396,-0.0424,-0.0426,-0.0363,-0.0357,-0.0351,-0.0315,-0.0398,0,0,0,0,0,-0.0033,-0.0032,-0.0059,-0.0057,-0.0062,-0.0102,-0.0115,-0.0138,-0.0178,-0.0196,-0.024,-0.0289,-0.0334,-0.0355,-0.0398,-0.0417,-0.0442,-0.0416,-0.0411,-0.0406,-0.0385,-0.043,-0.0426,-0.0467,-0.0467,-0.0467,0,0,-0.0023,-0.0035,-0.0035,-0.005,-0.0071,-0.0066,-0.0112,-0.0123,-0.0121,-0.0202,-0.0216,-0.0272,-0.0337,-0.0364,-0.0379,-0.039,-0.0404,-0.0405,-0.04,-0.0382,-0.0429,-0.0425,-0.0421,-0.0467,-0.0467,-0.0467,0,0,0.0006,-0.0007,0.001,-0.0001,-0.002,-0.004,-0.0036,-0.0071,-0.0089,-0.0112,-0.0173,-0.0219,-0.0276,-0.0322,-0.0353,-0.0342,-0.0377,-0.0353,-0.0292,-0.0336,-0.0333,-0.033,-0.0339,-0.0337,-0.0347,-0.0346,-0.0346,0,0.0026,0.0042,0.001,0.0025,0.0031,-0.0019,0.001,-0.0019,-0.0064,-0.007,-0.0103,-0.0193,-0.0255,-0.0289,-0.0292,-0.0328,-0.0346,-0.0311,-0.0327,-0.0325,-0.0324,-0.0334,-0.0333,-0.0342,-0.0343,-0.0343,-0.0344,0,0.007,0.0083,0.0093,0.0102,0.0103,0.0115,0.0087,0.0078,0.0051,0.0022,-0.0015,-0.0107,-0.0153,-0.0188,-0.024,-0.0257,-0.0269,-0.0317,-0.0338,-0.0314,-0.0327,-0.0328,-0.0337,-0.0338,-0.0339,-0.034,0,0,0.0131,0.0128,0.0135,0.0163,0.0151,0.0166,0.0168,0.0168,0.0185,0.0116,0.013,0.0024,-0.0022,-0.006,-0.0135,-0.0181,-0.0198,-0.0234,-0.0238,-0.023,-0.0264,-0.0282,-0.0285,-0.025,-0.025,-0.025,-0.027,0,0.0186,0.0239,0.022,0.0281,0.0317,0.0283,0.03,0.0287,0.0258,0.0252,0.0152,0.0124,0.0026,0.0005,-0.0057,-0.0161,-0.02,-0.0186,-0.0298,-0.03,-0.031,-0.0287,-0.0261,-0.0278,-0.0271,-0.0271,-0.0272,0,0.0253,0.0283,0.0349,0.0397,0.0412,0.0432,0.0472,0.0474,0.0434,0.041,0.0354,0.0282,0.0206,0.0113,-0.0032,-0.0016,-0.0123,-0.0211,-0.0216,-0.0258,-0.0321,-0.0306,-0.0281,-0.0485,-0.0274,-0.0273,-0.0273,0,0.0341,0.0385,0.0447,0.046,0.0492,0.0519,0.0533,0.0522,0.0552,0.0504,0.0523,0.0411,0.0376,0.022,0.0039,0.0007,-0.0114,-0.0186,-0.0299,-0.03,-0.0312,-0.0314,-0.0486,-0.0286,-0.0285,-0.0285,-0.0285,0,0.042,0.0476,0.0489,0.0527,0.0614,0.0604,0.068,0.067,0.0681,0.0742,0.0608,0.0636,0.04,0.03,0.0106,-0.0078,-0.0063,-0.0268,-0.0308,-0.0282,-0.0282,-0.0488,-0.062,-0.0286,-0.0286,-0.0286,-0.0286,0,0.0499,0.0505,0.0586,0.0633,0.0653,0.0711,0.0779,0.0837,0.0824,0.09,0.0898,0.0819,0.0691,0.0457,0.0223,0.0034,-0.0284,-0.0239,-0.0174,-0.0206,-0.0516,-0.0642,-0.0846,-0.0954,-0.0358,-0.0359,-0.0359,0,0.0541,0.0585,0.0662,0.0717,0.0735,0.081,0.0875,0.0898,0.097,0.1027,0.1086,0.0997,0.0961,0.0617,0.0265,-0.0054,-0.0284,-0.0252,-0.033,-0.0513,-0.0684,-0.0777,-0.086,-0.0304,-0.0304,-0.0304,-0.0304,0,0.0624,0.0643,0.0703,0.081,0.0888,0.0986,0.1078,0.1164,0.1218,0.1298,0.1391,0.1372,0.1057,0.0761,0.0311,0.006,-0.0403,-0.0262,-0.048,-0.0672,-0.0756,-0.0883,-0.0293,-0.0304,-0.0304,-0.0304,-0.0304,-0.0304,0.0682,0.0734,0.0806,0.091,0.101,0.1146,0.1245,0.1369,0.1515,0.1656,0.163,0.1657,0.1219,0.0611,0.0243,-0.0392,-0.043,-0.0586,-0.0723,-0.0797,-0.0918,-0.031,-0.036,-0.0361,-0.0361,-0.0361,-0.0361,0,0.0748,0.0804,0.0906,0.1032,0.1154,0.1194,0.1378,0.1496,0.1691,0.1837,0.1918,0.1763,0.1189,0.0594,-0.0247,-0.0733,-0.0938,-0.1015,-0.1151,-0.1216,-0.0687,-0.0702,-0.0795,-0.0794,-0.0794,-0.0794,-0.0794,-0.0794,0.0786,0.0883,0.093,0.1126,0.1223,0.1397,0.1511,0.1701,0.1853,0.2046,0.2118,0.2131,0.174,0.0176,-0.0915,-0.1202,-0.1537,-0.1621,-0.1814,-0.1465,-0.1435,-0.1407,-0.1452,-0.17,-0.1701,-0.2264,-0.227,-0.2275]}],[{"header":{"parameterUnit":"m.s-1","parameterCategory":2,"la1":30.2991,"la2":30.254,"lo1":-89.0895,"lo2":-89.0444,"dy":0.0017,"dx":0.0017,"nx":28,"ny":28,"refTime":"2024-06-20T09:00:00:Z","depth":"2","parameterNumber":2,"parameterNumberName":"U-component_of_CURRENTS"},"data":[0,0,0,0,0,0,0,0,0,0,0,0,0,0,0,0,0,0,0,0,0,0,0,0,0,0,0,0,0,0,0,0,0,0,0,0,0,0,0,0,0,0,0,0,0,0,0,0,0,0,0,0,0,0,0,0,0,0,0.3076,0.3077,0,0.3161,0.3161,0.3161,0.3226,0.3227,0.3228,0.3229,0.3263,0.3263,0.3263,0,0,0,0,0,0,0,0,0,0,0,0,0,0.2987,0.2987,0.3075,0.3077,0.3079,0.3161,0.3161,0.3162,0.3225,0.3227,0.3228,0.323,0.3263,0.3263,0.3263,0,0,0,0,0,0,0,0,0,0,0,0,0,0.3037,0.2987,0.3075,0.3126,0.3132,0.3161,0.3161,0.3162,0.3225,0.3227,0.3229,0.3231,0.3264,0.3263,0.3263,0.3222,0,0,0.3262,0.3261,0,0,0,0,0,0,0,0,0.3034,0.3039,0.3117,0.3123,0.313,0.3191,0.3143,0.3182,0.3225,0.3182,0.3229,0.3231,0.3238,0.324,0.3242,0.3224,0.3226,0.3262,0.3261,0.3261,0.3261,0,0,0,0,0,0,0,0.303,0.3036,0.3102,0.3119,0.3126,0.3152,0.316,0.315,0.3191,0.3186,0.3192,0.3213,0.324,0.3242,0.3243,0.3226,0.3262,0.3261,0.3261,0.3261,0.3306,0.3307,0,0,0,0,0,0,0.3031,0.3032,0.3099,0.3105,0.3094,0.3152,0.3161,0.3163,0.3193,0.3202,0.3211,0.3216,0.3242,0.3243,0.3244,0.33,0.3261,0.3261,0.3261,0.3304,0.3306,0.3308,0,0,0,0,0,0,0.3029,0.3036,0.3096,0.3078,0.3088,0.3152,0.3154,0.3164,0.3202,0.3214,0.3221,0.3244,0.3243,0.3245,0.3274,0.3298,0.3261,0.326,0.3303,0.3305,0.3307,0.3345,0,0,0,0,0,0,0.3025,0.3033,0.305,0.3077,0.309,0.3134,0.3153,0.3165,0.3213,0.322,0.3243,0.3247,0.3245,0.3275,0.3273,0.3297,0.326,0.3301,0.3304,0.3306,0.3342,0.3348,0.3354,0,0,0,0,0,0.3021,0.3046,0.3049,0.3059,0.3104,0.3135,0.3143,0.319,0.3213,0.323,0.3255,0.3248,0.3291,0.3275,0.3273,0.3297,0.3299,0.3303,0.3306,0.334,0.3347,0.3354,0,0,0,0,0,0,0.3016,0.3055,0.306,0.3094,0.3119,0.315,0.3181,0.3204,0.3235,0.3249,0.3257,0.3261,0.3304,0.3292,0.3274,0.3321,0.3297,0.33,0.3324,0.3331,0.3336,0.3369,0.326,0,0,0,0,0,0.3019,0.3052,0.3074,0.3105,0.3114,0.3146,0.3172,0.3196,0.3225,0.3243,0.3263,0.3284,0.3307,0.3314,0.3331,0.3338,0.3362,0.3357,0.3363,0.3368,0.3395,0.3456,0.3471,0.3318,0.3318,0.3318,0,0,0.302,0.3056,0.307,0.3108,0.3128,0.3148,0.3165,0.3207,0.3238,0.3237,0.3291,0.3309,0.3319,0.3348,0.3364,0.3342,0.3421,0.3372,0.3376,0.3401,0.3461,0.3476,0.349,0.332,0.332,0.332,0,0,0.3037,0.3069,0.3088,0.3118,0.3163,0.3177,0.3193,0.3228,0.326,0.3297,0.3321,0.3362,0.3376,0.3401,0.3411,0.3455,0.346,0.3454,0.3495,0.3554,0.3567,0.3579,0.3614,0.3629,0.3444,0.3444,0.3444,0,0.3039,0.3071,0.3099,0.3131,0.3163,0.319,0.3208,0.324,0.3289,0.3321,0.3325,0.3402,0.3408,0.3461,0.3485,0.347,0.3498,0.3463,0.3562,0.3575,0.3587,0.3619,0.3635,0.3446,0.3446,0.3446,0.3446,0,0.3061,0.3097,0.3118,0.316,0.3186,0.3222,0.3254,0.3298,0.3335,0.3367,0.3442,0.3463,0.3513,0.3516,0.3514,0.3598,0.3589,0.3572,0.3544,0.3604,0.3635,0.3651,0.345,0.3449,0.3448,0.3448,0,0,0.3027,0.3114,0.312,0.3149,0.3213,0.3231,0.329,0.3342,0.3402,0.3447,0.352,0.3569,0.3597,0.3613,0.3619,0.3665,0.3762,0.3658,0.366,0.3692,0.3887,0.3856,0.387,0.3764,0.3768,0.377,0.3869,0,0.3032,0.3089,0.3135,0.3185,0.3205,0.327,0.3321,0.338,0.3442,0.3521,0.3566,0.3635,0.3625,0.3661,0.371,0.3761,0.381,0.3737,0.3825,0.3828,0.3793,0.389,0.3606,0.3669,0.3884,0.3887,0.3889,0,0.3022,0.307,0.3113,0.3203,0.3216,0.3256,0.3355,0.3411,0.3523,0.3577,0.3659,0.3707,0.3797,0.3775,0.39,0.3856,0.389,0.3915,0.3919,0.3896,0.3829,0.3648,0.369,0.3916,0.3914,0.3912,0.391,0,0.2962,0.3052,0.309,0.3125,0.3222,0.3265,0.3318,0.3425,0.3486,0.3625,0.3688,0.3796,0.3863,0.3933,0.4003,0.3965,0.4133,0.4074,0.4075,0.4071,0.3852,0.3825,0.4176,0.4176,0.4175,0.4175,0.4175,0,0.295,0.298,0.3073,0.3099,0.3152,0.3232,0.3311,0.3393,0.3516,0.36,0.3712,0.3809,0.3915,0.4017,0.4051,0.413,0.4175,0.4123,0.4115,0.3855,0.3828,0.4057,0.4042,0.4179,0.4178,0.4177,0.4177,0,0.2872,0.2942,0.2988,0.3092,0.3123,0.3157,0.328,0.3346,0.3478,0.3598,0.3648,0.3842,0.3997,0.4083,0.4215,0.4196,0.4265,0.4274,0.396,0.3916,0.4142,0.4128,0.4283,0.4283,0.4283,0.4283,0.4283,0,0.2837,0.2857,0.295,0.2977,0.3028,0.31,0.3152,0.3295,0.3373,0.362,0.3669,0.3883,0.4002,0.4183,0.4228,0.429,0.432,0.4035,0.392,0.4188,0.4164,0.4149,0.4135,0.3627,0.3622,0.3618,0.3614,0,0.277,0.2808,0.2848,0.2894,0.2948,0.3004,0.3098,0.3143,0.3336,0.3458,0.3644,0.3768,0.3992,0.3969,0.4076,0.4062,0.4002,0.3952,0.4331,0.3658,0.3582,0.3555,0.356,0.3576,0.358,0.3583,0.3585,0.3586,0.2709,0.2715,0.2768,0.2802,0.2856,0.2886,0.2894,0.3016,0.3116,0.3264,0.3489,0.3582,0.3707,0.3746,0.3682,0.3643,0.3901,0.3713,0.372,0.3734,0.3654,0.3584,0.3563,0.3566,0.3569,0.3572,0.3574,0,0.2622,0.2644,0.2674,0.2699,0.2697,0.2776,0.2838,0.283,0.2893,0.3086,0.322,0.3087,0.3126,0.3224,0.3138,0.3182,0.3083,0.3032,0.2869,0.2915,0.2953,0.2825,0.2518,0.2514,0.2509,0.2506,0,0,0.2581,0.2567,0.2578,0.2533,0.2553,0.2514,0.2521,0.2537,0.263,0.2666,0.2718,0.2992,0.3162,0.279,0.2789,0.2632,0.2726,0.2532,0.34,0.3256,0.3288,0.3395,0.326,0,0,0,0,0]},{"header":{"parameterUnit":"m.s-1","parameterCategory":2,"la1":30.2991,"la2":30.254,"lo1":-89.0895,"lo2":-89.0444,"dy":0.0017,"dx":0.0017,"nx":28,"ny":28,"refTime":"2024-06-20T09:00:00:Z","depth":"2","parameterNumber":3,"parameterNumberName":"V-component_of_CURRENTS"},"data":[0,0,0,0,0,0,0,0,0,0,0,0,0,0,0,0,0,0,0,0,0,0,0,0,0,0,0,0,0,0,0,0,0,0,0,0,0,0,0,0,0,0,0,0,0,0,0,0,0,0,0,0,0,0,0,0,0,0,-0.0011,-0.0012,0,-0.0082,-0.0083,-0.0084,-0.0143,-0.0144,-0.0144,-0.0145,-0.027,-0.0273,-0.0276,0,0,0,0,0,0,0,0,0,0,0,0,0,0.0027,0.0027,-0.0011,-0.0012,-0.0013,-0.0082,-0.0083,-0.0084,-0.0143,-0.0144,-0.0145,-0.0145,-0.0269,-0.0273,-0.0276,0,0,0,0,0,0,0,0,0,0,0,0,0,-0.0011,0.0027,-0.0011,-0.0051,-0.0055,-0.0082,-0.0083,-0.0084,-0.0143,-0.0144,-0.0145,-0.0146,-0.0268,-0.0272,-0.0276,-0.0282,0,0,-0.0289,-0.0291,0,0,0,0,0,0,0,0,-0.0009,-0.0013,-0.0044,-0.0048,-0.0053,-0.0105,-0.0116,-0.0153,-0.0143,-0.011,-0.0145,-0.0146,-0.0219,-0.0227,-0.0238,-0.0288,-0.0293,-0.0289,-0.0292,-0.0293,-0.0295,0,0,0,0,0,0,0,-0.0006,-0.001,-0.0039,-0.0045,-0.005,-0.0081,-0.0087,-0.0123,-0.0159,-0.0113,-0.0117,-0.0125,-0.0222,-0.0234,-0.0241,-0.0295,-0.0289,-0.0293,-0.0295,-0.0297,-0.0379,-0.0379,0,0,0,0,0,0,0.0006,-0.0007,-0.0037,-0.0041,-0.0033,-0.0081,-0.0087,-0.0087,-0.0158,-0.0169,-0.0124,-0.0127,-0.0226,-0.0236,-0.0246,-0.0261,-0.0293,-0.0297,-0.03,-0.038,-0.0379,-0.0379,0,0,0,0,0,0,0.0007,0.0004,-0.0034,-0.0027,-0.0034,-0.008,-0.0079,-0.0088,-0.0104,-0.0166,-0.0178,-0.0132,-0.0227,-0.024,-0.0277,-0.0266,-0.0299,-0.0303,-0.038,-0.0379,-0.0379,-0.0289,0,0,0,0,0,0,0.0009,0.0006,0.0006,-0.0025,-0.0034,-0.0046,-0.0079,-0.0089,-0.0107,-0.0112,-0.0176,-0.0189,-0.0229,-0.0271,-0.0281,-0.0273,-0.0306,-0.038,-0.038,-0.0379,-0.0292,-0.0286,-0.028,0,0,0,0,0,0.0011,0.0018,0.0007,0.0003,-0.003,-0.0045,-0.0052,-0.0089,-0.0106,-0.0108,-0.0152,-0.0187,-0.0276,-0.0274,-0.0286,-0.0278,-0.038,-0.038,-0.0379,-0.0295,-0.0287,-0.028,0,0,0,0,0,0,0.0035,0.0011,-0.0001,-0.0002,-0.002,-0.0055,-0.0061,-0.0083,-0.0118,-0.0124,-0.0183,-0.0198,-0.0228,-0.0266,-0.0262,-0.0302,-0.0334,-0.0336,-0.0266,-0.0259,-0.0252,-0.0231,-0.0309,0,0,0,0,0,0.0043,0.004,0.0016,0.0015,0.0011,-0.0023,-0.0035,-0.0055,-0.0088,-0.0104,-0.0149,-0.0196,-0.0234,-0.0255,-0.0297,-0.0315,-0.0352,-0.0319,-0.0313,-0.0307,-0.0299,-0.0348,-0.0345,-0.0377,-0.0377,-0.0377,0,0,0.0054,0.0038,0.0037,0.0019,0.0004,0.0012,-0.0032,-0.0041,-0.004,-0.0112,-0.0129,-0.0178,-0.0235,-0.0258,-0.0274,-0.0288,-0.0316,-0.0306,-0.0301,-0.0296,-0.0347,-0.0344,-0.0341,-0.0377,-0.0377,-0.0377,0,0,0.0081,0.0063,0.0075,0.0064,0.0046,0.0033,0.0034,0.0004,-0.0015,-0.0035,-0.0087,-0.0129,-0.0184,-0.0222,-0.0248,-0.0233,-0.0283,-0.0245,-0.0193,-0.024,-0.0238,-0.0236,-0.0267,-0.0269,-0.0239,-0.0239,-0.0238,0,0.0093,0.0107,0.0076,0.0086,0.0089,0.005,0.0075,0.0052,0.0011,0.0001,-0.003,-0.0111,-0.0167,-0.0191,-0.0188,-0.0219,-0.0246,-0.0214,-0.0231,-0.023,-0.023,-0.0262,-0.0266,-0.0234,-0.0235,-0.0235,-0.0236,0,0.0132,0.0142,0.015,0.0156,0.0156,0.0168,0.0146,0.0135,0.0107,0.008,0.0043,-0.0033,-0.008,-0.0105,-0.0143,-0.0163,-0.0182,-0.0217,-0.0244,-0.0221,-0.0257,-0.0262,-0.0228,-0.0229,-0.0231,-0.0232,0,0,0.0168,0.0177,0.0181,0.0204,0.0197,0.0209,0.0214,0.0212,0.0219,0.0159,0.0158,0.0078,0.0033,-0.0,-0.0058,-0.0102,-0.013,-0.0149,-0.0153,-0.0169,-0.0217,-0.0228,-0.0236,-0.0164,-0.0164,-0.0165,-0.0238,0,0.0212,0.0256,0.0247,0.0302,0.0332,0.0306,0.0321,0.0308,0.0279,0.0262,0.0179,0.0151,0.0076,0.0057,0.0001,-0.0096,-0.014,-0.0106,-0.0247,-0.0251,-0.0256,-0.0241,-0.0206,-0.0268,-0.0244,-0.0245,-0.0245,0,0.026,0.0285,0.0345,0.039,0.0402,0.0423,0.0449,0.0452,0.0412,0.0386,0.0335,0.0273,0.0203,0.0132,-0.0015,0.0014,-0.0091,-0.0173,-0.0178,-0.0223,-0.0272,-0.0293,-0.0279,-0.0254,-0.0253,-0.0253,-0.0252,0,0.0316,0.0361,0.0416,0.0426,0.0462,0.0484,0.05,0.0486,0.0509,0.046,0.047,0.0367,0.0331,0.0185,0.0019,0.0002,-0.0143,-0.0193,-0.0302,-0.0304,-0.032,-0.0322,-0.0301,-0.0301,-0.0301,-0.0301,-0.03,0,0.0371,0.0417,0.0444,0.0475,0.0547,0.0545,0.0606,0.0597,0.0604,0.0654,0.0538,0.0556,0.0343,0.0239,0.0062,-0.0121,-0.0113,-0.0286,-0.0324,-0.0286,-0.0285,-0.0314,-0.0315,-0.0303,-0.0303,-0.0302,-0.0302,0,0.0422,0.0437,0.0507,0.0555,0.0575,0.0623,0.0689,0.0735,0.0722,0.0783,0.0781,0.07,0.0568,0.0352,0.0123,-0.0045,-0.0236,-0.0307,-0.0239,-0.0268,-0.0378,-0.0373,-0.0437,-0.0438,-0.0439,-0.044,-0.0441,0,0.0451,0.049,0.0566,0.0616,0.0639,0.0704,0.0762,0.0786,0.0848,0.0888,0.0936,0.0837,0.0791,0.0448,0.0134,-0.0169,-0.0221,-0.0343,-0.0383,-0.0361,-0.0392,-0.0386,-0.038,-0.0368,-0.0368,-0.0368,-0.0368,0,0.051,0.0532,0.0588,0.0687,0.076,0.0848,0.0933,0.1006,0.1057,0.1121,0.1191,0.116,0.0852,0.0563,0.0141,-0.0074,-0.0295,-0.0352,-0.035,-0.0334,-0.0301,-0.0329,-0.0325,-0.0367,-0.0367,-0.0367,-0.0367,-0.0367,0.0552,0.0598,0.067,0.0764,0.0859,0.0979,0.1063,0.1176,0.1299,0.1412,0.1381,0.1353,0.1017,0.0493,0.0115,-0.0289,-0.0279,-0.0423,-0.0421,-0.0419,-0.0393,-0.0363,-0.0436,-0.0436,-0.0437,-0.0437,-0.0437,0,0.0601,0.0653,0.0745,0.086,0.0971,0.1014,0.1175,0.1267,0.1431,0.1548,0.1604,0.1308,0.0975,0.0576,-0.0008,-0.0363,-0.0403,-0.0482,-0.0445,-0.0442,-0.044,-0.0415,-0.0464,-0.0465,-0.0466,-0.0467,0,0,0.0629,0.0716,0.0758,0.0928,0.1018,0.1167,0.1265,0.1419,0.1535,0.1646,0.166,0.1611,0.1132,0.0713,0.0225,-0.0115,-0.0203,-0.0194,-0.0133,-0.0029,-0.0023,-0.0366,-0.0318,0,0,0,0,0]}],[{"header":{"parameterUnit":"m.s-1","parameterCategory":2,"la1":30.2991,"la2":30.254,"lo1":-89.0895,"lo2":-89.0444,"dy":0.0017,"dx":0.0017,"nx":28,"ny":28,"refTime":"2024-06-20T09:00:00:Z","depth":"4","parameterNumber":2,"parameterNumberName":"U-component_of_CURRENTS"},"data":[0,0,0,0,0,0,0,0,0,0,0,0,0,0,0,0,0,0,0,0,0,0,0,0,0,0,0,0,0,0,0,0,0,0,0,0,0,0,0,0,0,0,0,0,0,0,0,0,0,0,0,0,0,0,0,0,0,0,0.1897,0.1898,0,0.1931,0.1931,0.1931,0.196,0.1961,0.1961,0.1962,0.2063,0.2065,0.2067,0,0,0,0,0,0,0,0,0,0,0,0,0,0.1825,0.1826,0.1897,0.1898,0.1899,0.1931,0.1931,0.1931,0.196,0.1961,0.1961,0.1962,0.2062,0.2065,0.2067,0,0,0,0,0,0,0,0,0,0,0,0,0,0.1855,0.1827,0.1897,0.1919,0.1921,0.1931,0.1931,0.1931,0.196,0.1961,0.1961,0.1962,0.2061,0.2064,0.2068,0.207,0,0,0.2077,0.2079,0,0,0,0,0,0,0,0,0.1853,0.1857,0.1915,0.1917,0.192,0.1944,0.1943,0.1982,0.1959,0.1942,0.1962,0.1963,0.2031,0.2036,0.2036,0.2075,0.2079,0.2078,0.208,0.2081,0.2082,0,0,0,0,0,0,0,0.1851,0.1855,0.1908,0.1916,0.1919,0.1916,0.1921,0.1949,0.198,0.1944,0.1947,0.1954,0.2032,0.2033,0.2039,0.2081,0.2078,0.2081,0.2083,0.2084,0.2258,0.2261,0,0,0,0,0,0,0.1853,0.1854,0.1907,0.1909,0.1891,0.1917,0.1922,0.1934,0.1979,0.1987,0.1954,0.1956,0.2027,0.2035,0.2043,0.2156,0.2081,0.2084,0.2086,0.2256,0.2259,0.2262,0,0,0,0,0,0,0.1852,0.1858,0.1905,0.1884,0.189,0.1917,0.193,0.1934,0.1973,0.1986,0.1995,0.1993,0.2028,0.2038,0.2108,0.2156,0.2086,0.2089,0.2252,0.2257,0.226,0.2314,0,0,0,0,0,0,0.1849,0.1857,0.1886,0.1884,0.1892,0.1941,0.1929,0.1934,0.1975,0.1979,0.2022,0.203,0.2029,0.2103,0.2111,0.2159,0.2091,0.2249,0.2254,0.2259,0.2309,0.232,0.2329,0,0,0,0,0,0.1847,0.187,0.1887,0.1894,0.1924,0.1943,0.1947,0.1966,0.1977,0.2003,0.2036,0.203,0.2141,0.2107,0.2116,0.2167,0.2247,0.2253,0.2259,0.2305,0.2318,0.2328,0,0,0,0,0,0,0.1848,0.1875,0.1894,0.1925,0.1951,0.195,0.1981,0.199,0.2033,0.2054,0.2059,0.207,0.2151,0.2156,0.2119,0.2235,0.2196,0.2204,0.2228,0.224,0.225,0.2267,0.2094,0,0,0,0,0,0.1864,0.1894,0.1916,0.1945,0.1966,0.1983,0.2001,0.2018,0.2045,0.2065,0.2096,0.2137,0.2176,0.2206,0.2242,0.2301,0.2316,0.2344,0.2354,0.2362,0.2385,0.2437,0.2453,0.2282,0.2282,0.2282,0,0,0.1871,0.1892,0.191,0.1949,0.1973,0.2006,0.1997,0.2042,0.2079,0.2071,0.2151,0.2178,0.2202,0.2269,0.2307,0.2283,0.2421,0.237,0.2376,0.2395,0.2445,0.2461,0.2476,0.2286,0.2285,0.2284,0,0,0.1887,0.1927,0.1958,0.1987,0.2038,0.2051,0.2075,0.2111,0.2147,0.2214,0.2223,0.228,0.2342,0.2364,0.238,0.2469,0.2473,0.2492,0.2552,0.2603,0.2617,0.2629,0.267,0.2686,0.2493,0.2493,0.2493,0,0.1907,0.194,0.197,0.2007,0.2041,0.2077,0.2119,0.2155,0.2212,0.2252,0.2258,0.2367,0.2384,0.2456,0.2489,0.2491,0.2522,0.2497,0.2614,0.2626,0.2638,0.2677,0.2694,0.2496,0.2496,0.2496,0.2495,0,0.193,0.1978,0.2001,0.2063,0.2104,0.2149,0.2202,0.2264,0.2314,0.2343,0.245,0.2479,0.2544,0.2558,0.2551,0.2651,0.2646,0.2618,0.2576,0.2658,0.2694,0.2711,0.2501,0.25,0.2499,0.2498,0,0,0.1926,0.2005,0.2021,0.2062,0.2143,0.2174,0.2262,0.234,0.2405,0.2478,0.256,0.2631,0.2662,0.2685,0.2694,0.2737,0.2837,0.2726,0.2727,0.2754,0.296,0.2795,0.2796,0.2833,0.2836,0.2839,0.2951,0,0.1946,0.2016,0.2057,0.2138,0.2181,0.2253,0.2325,0.2406,0.2481,0.2571,0.263,0.2713,0.2704,0.2752,0.2799,0.2833,0.2884,0.281,0.2889,0.2891,0.2723,0.281,0.2849,0.2962,0.2966,0.2969,0.2971,0,0.1955,0.2004,0.2084,0.2183,0.2214,0.2273,0.2407,0.2476,0.26,0.2666,0.2764,0.281,0.2912,0.288,0.3,0.296,0.2983,0.2994,0.2997,0.2837,0.2756,0.2866,0.3,0.2998,0.2996,0.2994,0.2992,0,0.192,0.2023,0.2089,0.2123,0.2239,0.2309,0.2385,0.2512,0.2588,0.2739,0.2811,0.2926,0.3005,0.3061,0.3108,0.3072,0.322,0.3158,0.3032,0.302,0.3109,0.3095,0.3247,0.3247,0.3247,0.3247,0.3246,0,0.1902,0.1961,0.2085,0.2119,0.2214,0.2308,0.2424,0.2518,0.2659,0.2749,0.2865,0.2951,0.3061,0.3148,0.3163,0.3158,0.3272,0.3069,0.3046,0.313,0.3116,0.312,0.3104,0.3251,0.325,0.3249,0.3248,0,0.1841,0.1922,0.2003,0.2144,0.2195,0.2266,0.2433,0.2504,0.266,0.2785,0.2843,0.3011,0.3126,0.3208,0.3306,0.3214,0.3227,0.3196,0.3311,0.3288,0.2978,0.2964,0.3053,0.3048,0.3044,0.3041,0.3038,0,0.1807,0.1844,0.2003,0.2053,0.2123,0.2244,0.2318,0.2487,0.2557,0.2798,0.2836,0.3023,0.3114,0.3116,0.3218,0.3243,0.3202,0.3176,0.3048,0.2994,0.2963,0.2955,0.2947,0.3031,0.303,0.3029,0.3028,0,0.1738,0.1813,0.1879,0.198,0.207,0.2155,0.2276,0.2314,0.2507,0.2677,0.2765,0.2831,0.2957,0.3018,0.3071,0.3077,0.3167,0.3133,0.3139,0.3019,0.2969,0.2941,0.2937,0.3014,0.3016,0.3018,0.3018,0,0.1687,0.1713,0.1805,0.1881,0.1984,0.2024,0.2109,0.2192,0.2285,0.2533,0.257,0.2765,0.2938,0.2937,0.2989,0.2985,0.2923,0.2792,0.2815,0.2832,0.2706,0.2607,0.2543,0,0,0,0,0,0.1614,0.1625,0.1692,0.1756,0.1852,0.1913,0.2055,0.2141,0.2331,0.2329,0.2438,0.2544,0.263,0.2731,0.2683,0.2897,0.2936,0.2827,0.2797,0.2937,0.2953,0.2824,0,0,0,0,0,0,0.1557,0.1613,0.1641,0.1634,0.1657,0.174,0.1826,0.1961,0.1961,0.2169,0.2226,0.2388,0.2506,0.2634,0.2634,0.2665,0.2592,0.2953,0.2946,0.2927,0.2942,0.2955,0.2829,0,0,0,0,0]},{"header":{"parameterUnit":"m.s-1","parameterCategory":2,"la1":30.2991,"la2":30.254,"lo1":-89.0895,"lo2":-89.0444,"dy":0.0017,"dx":0.0017,"nx":28,"ny":28,"refTime":"2024-06-20T09:00:00:Z","depth":"4","parameterNumber":3,"parameterNumberName":"V-component_of_CURRENTS"},"data":[0,0,0,0,0,0,0,0,0,0,0,0,0,0,0,0,0,0,0,0,0,0,0,0,0,0,0,0,0,0,0,0,0,0,0,0,0,0,0,0,0,0,0,0,0,0,0,0,0,0,0,0,0,0,0,0,0,0,0.0086,0.0086,0,0.0053,0.0053,0.0052,0.0035,0.0035,0.0036,0.0036,-0.005,-0.0052,-0.0055,0,0,0,0,0,0,0,0,0,0,0,0,0,0.0102,0.0102,0.0086,0.0086,0.0086,0.0053,0.0053,0.0052,0.0035,0.0035,0.0036,0.0036,-0.0049,-0.0052,-0.0055,0,0,0,0,0,0,0,0,0,0,0,0,0,0.0084,0.0102,0.0086,0.0074,0.0073,0.0053,0.0053,0.0052,0.0035,0.0035,0.0036,0.0036,-0.0048,-0.0052,-0.0055,-0.0079,0,0,-0.0066,-0.0068,0,0,0,0,0,0,0,0,0.0085,0.0083,0.0076,0.0075,0.0073,0.0049,0.0027,0.0006,0.0035,0.0049,0.0036,0.0036,-0.0021,-0.0027,-0.0034,-0.0083,-0.0086,-0.0066,-0.0068,-0.007,-0.0071,0,0,0,0,0,0,0,0.0086,0.0085,0.0072,0.0076,0.0074,0.0059,0.0057,0.0023,0.0012,0.0047,0.0046,0.0044,-0.0023,-0.003,-0.0036,-0.0088,-0.0066,-0.0069,-0.0072,-0.0073,-0.0152,-0.0152,0,0,0,0,0,0,0.0094,0.0086,0.0073,0.0071,0.008,0.0059,0.0056,0.0056,0.0013,0.0008,0.0044,0.0043,-0.0024,-0.0032,-0.0039,-0.0051,-0.007,-0.0073,-0.0075,-0.0152,-0.0152,-0.0152,0,0,0,0,0,0,0.0094,0.0093,0.0075,0.0078,0.0075,0.0059,0.0059,0.0056,0.005,0.0011,0.0005,0.0043,-0.0025,-0.0034,-0.0059,-0.0056,-0.0075,-0.0078,-0.0152,-0.0152,-0.0152,-0.0088,0,0,0,0,0,0,0.0095,0.0094,0.0097,0.0079,0.0075,0.0069,0.0059,0.0055,0.0049,0.0048,0.0008,-0.0,-0.0025,-0.0053,-0.0062,-0.0061,-0.0081,-0.0152,-0.0152,-0.0152,-0.009,-0.0086,-0.0082,0,0,0,0,0,0.0096,0.0103,0.0097,0.0096,0.008,0.007,0.0066,0.0054,0.0049,0.0049,0.0027,0.0001,-0.006,-0.0056,-0.0066,-0.0066,-0.0152,-0.0152,-0.0152,-0.0092,-0.0086,-0.0082,0,0,0,0,0,0,0.0115,0.0102,0.0095,0.0099,0.0087,0.0067,0.0068,0.0057,0.0039,0.004,0.0002,-0.0007,-0.0028,-0.0058,-0.0052,-0.009,-0.0111,-0.0113,-0.0062,-0.0057,-0.0053,-0.0035,-0.0084,0,0,0,0,0,0.012,0.0123,0.0105,0.011,0.0104,0.0086,0.008,0.0072,0.0054,0.0047,0.0019,-0.0012,-0.0038,-0.0054,-0.0084,-0.0105,-0.0139,-0.0113,-0.0109,-0.0105,-0.0098,-0.0144,-0.0143,-0.0152,-0.0152,-0.0152,0,0,0.0129,0.0123,0.0124,0.0114,0.0104,0.0107,0.0083,0.008,0.0083,0.0039,0.0032,-0.0,-0.0041,-0.0059,-0.0072,-0.0082,-0.0121,-0.0105,-0.0101,-0.0097,-0.0144,-0.0143,-0.0142,-0.0152,-0.0152,-0.0152,0,0,0.0151,0.0143,0.0151,0.0145,0.0135,0.0125,0.0126,0.0106,0.0097,0.0085,0.0056,0.0029,-0.0014,-0.0038,-0.0057,-0.0052,-0.0098,-0.0065,-0.003,-0.0075,-0.0074,-0.0074,-0.0117,-0.0121,-0.0063,-0.0063,-0.0063,0,0.016,0.0173,0.0152,0.016,0.0165,0.0137,0.0152,0.0138,0.0114,0.0107,0.0091,0.0034,-0.0003,-0.0023,-0.0018,-0.0043,-0.0074,-0.0042,-0.0068,-0.0069,-0.007,-0.0114,-0.0119,-0.006,-0.006,-0.006,-0.0061,0,0.0187,0.0199,0.0205,0.0209,0.021,0.0218,0.02,0.0193,0.0177,0.016,0.0133,0.0084,0.0051,0.0032,0.001,-0.0013,-0.0035,-0.0056,-0.0076,-0.0065,-0.0112,-0.0119,-0.0055,-0.0056,-0.0057,-0.0058,0,0,0.02,0.0219,0.0222,0.0241,0.024,0.0246,0.025,0.0244,0.025,0.021,0.0208,0.0155,0.0124,0.0101,0.0061,0.0024,-0.0013,-0.0011,-0.0015,-0.0045,-0.011,-0.011,-0.0118,-0.0038,-0.0038,-0.0039,-0.014,0,0.0227,0.0263,0.0264,0.0305,0.0323,0.031,0.0321,0.0312,0.0291,0.0278,0.0219,0.02,0.0152,0.014,0.0093,0.0017,-0.0028,0.0016,-0.0124,-0.0128,-0.0122,-0.0125,-0.0042,-0.0146,-0.0147,-0.0148,-0.0149,0,0.0251,0.0276,0.0319,0.0362,0.0369,0.039,0.0407,0.041,0.038,0.0362,0.0324,0.0279,0.0223,0.0179,0.0049,0.008,-0.0007,-0.0073,-0.0079,-0.0104,-0.014,-0.0161,-0.0162,-0.0161,-0.016,-0.0159,-0.0159,0,0.0275,0.0318,0.036,0.0372,0.0407,0.0428,0.0444,0.0435,0.0451,0.0414,0.0421,0.0335,0.0303,0.0183,0.005,0.0047,-0.0097,-0.0124,-0.021,-0.0212,-0.021,-0.0209,-0.0222,-0.0221,-0.0221,-0.0221,-0.0221,0,0.0304,0.034,0.0377,0.0402,0.0459,0.0466,0.0514,0.0511,0.0519,0.0552,0.0468,0.047,0.0305,0.0207,0.0069,-0.0085,-0.009,-0.0203,-0.0236,-0.0181,-0.0176,-0.0215,-0.0213,-0.0225,-0.0224,-0.0223,-0.0222,0,0.0323,0.0345,0.0402,0.0452,0.0474,0.0512,0.0579,0.0612,0.0607,0.0647,0.0645,0.0569,0.0442,0.0269,0.0072,-0.0047,-0.0205,-0.0263,-0.0184,-0.0212,-0.0299,-0.0292,-0.0371,-0.0372,-0.0373,-0.0373,-0.0374,0,0.0336,0.0365,0.044,0.0483,0.0512,0.0571,0.062,0.0649,0.0692,0.0714,0.074,0.0643,0.0567,0.0298,0.0096,-0.0177,-0.0218,-0.031,-0.0312,-0.0288,-0.0314,-0.0306,-0.0299,-0.0375,-0.0375,-0.0375,-0.0375,0,0.0363,0.039,0.0438,0.0524,0.0591,0.0665,0.0737,0.078,0.0821,0.0827,0.083,0.0699,0.0552,0.0322,0.0109,-0.0088,-0.0256,-0.0318,-0.0319,-0.0321,-0.0294,-0.0316,-0.0309,-0.0378,-0.0377,-0.0377,-0.0377,0,0.0386,0.0421,0.0486,0.0563,0.0651,0.0737,0.0772,0.0834,0.0878,0.0907,0.0905,0.0752,0.0661,0.0368,0.0174,-0.0022,-0.0081,-0.0155,-0.0165,-0.0165,-0.008,-0.0013,-0.0036,0,0,0,0,0,0.0404,0.0445,0.0521,0.0609,0.07,0.0752,0.0846,0.0874,0.092,0.0941,0.093,0.0801,0.0532,0.041,0.0215,0.0127,-0.0141,-0.0112,-0.0237,-0.0391,-0.0388,-0.0324,0,0,0,0,0,0,0.0416,0.0483,0.0518,0.0634,0.07,0.0804,0.0867,0.0902,0.0908,0.0929,0.0792,0.074,0.0471,0.0649,0.021,0.0149,0.0039,-0.0236,-0.024,-0.0392,-0.039,-0.0388,-0.0321,0,0,0,0,0]}]]